[Date Prev][Date Next][Thread Prev][Thread Next][Date Index][Thread Index]

[jamsat-news:1601] jas2info #246



========================   最新情報   ==============================

        Last updated :13OCT2001  20:50(JST)   #246

==================================================================
   
  1)アマチュア通信衛星情報、FOシリーズの軌道要素、テレメトリ、QSOの
   状況等をまとめてみました.
   
   FO−29の2001年10月13日(土)の18:57(JST)のパスでは
  JARLのホームページのとうりアナログ運用でした。 今日までの観測した
  テレメトリーと最終の分析結果を報告しておきます。

AS25464C1   13OCT2001
18:57-19:12(JST)
Freq. 435.803-.788MHz

HI HI AE C7 88 55 00 D4 9B 53 09 6D 9B 38 67 63 9C 95 B8 B5 8F 8C 8E 8E 8C 
HI HI AE C7 88 55 00 D4 9B 53 09 6D 9C 3C 66 63 9C 98 B0 80 8F 8C 8E 8E 8C 
HI HI AE C7 88 55 00 D4 9B 53 09 6D 9A 40 47 66 9B 97 A0 80 8F 8C 8E 8F 8C 
HI HI AE C7 88 55 00 D4 9B 53 09 6D 95 42 41 7D 93 8F 95 79 8F 8C 8E 8E 8C 
HI HI AE C7 88 55 00 D4 9B 53 09 6D 8E 45 40 86 8E 8C 91 6B 8F 8C 8E 8F 8C 
HI HI AE C7 88 55 00 D4 9B 53 09 6D 85 4B 01 87 8B 7A 8F 7B 8F 8C 8E 8F 8C 
HI HI AE C7 88 55 00 D4 9B 53 09 6D 71 58 00 89 8A 89 95 8C 8F 8C 8E 8F 8C 
HI HI AE 07 88 55 00 D4 9B 53 09 6D 66 5F 01 86 8A 89 95 77 8F 8C 8F 8F 8B 
HI HI AE C7 88 55 00 D4 9B 53 09 6D 5C 6A 02 85 8A 89 95 75 8F 8C 8F 8F 8C 
HI HI AE 07 88 55 00 D4 9B 53 09 6D 54 6F 05 85 8A 89 95 71 8F 8C 8F 8F 8C 
HI HI AE 07 88 55 00 D4 9B 53 09 6D 4E 78 0B 81 8A 89 95 6A 8F 8D 8F 90 8C 
HI HI AE 07 88 55 00 D4 9B 53 09 6D 4B 81 26 73 8B 88 95 79 90 8D 8F 90 8C 
HI HI AE 07 88 55 00 D4 9B 53 09 6D 4A 8A 54 5D 8D 8B 98 83 90 8D 8F 90 8C 
HI HI AE 07 88 55 00 D4 9B 53 09 6D 4C 91 60 56 8F 8C 99 77 90 8D 8F 90 8C 
HI HI AE 07 88 55 00 D4 9B 53 09 6D 51 97 63 55 90 8E 9B 6B 90 8D 8F 90 8C 
HI HI AE 07 88 55 00 D4 9B 53 09 6D 57 9C 64 55 92 8F B0 76 90 8E 90 90 8C 
HI HI AE C7 88 55 00 D4 9B 53 09 6D 5D 9D 66 58 91 7F B0 67 90 8E 90 90 8C 
HI HI AE C7 88 55 00 D4 9B 53 09 6D 65 9E 68 59 91 8F B0 5F 91 8E 90 90 8C 
HI HI AE C7 88 55 00 D4 9B 53 09 6D 6B 9F 69 5F 91 8F B0 5B 91 8E 90 90 8C 

AS25437C  11OCT2001
19:02-19:17(JST)
FREQ. 435.803-.787MHz

HI HI AE C7 88 55 00 D4 00 00 09 00 4F 99 6F 63 9B 97 B0 88 8F 8B 8F 91 8D 
HI HI AE C7 88 55 00 D4 00 00 09 00 42 8D 6A 63 9C 97 B0 80 8F 8B 8F 92 8D 
HI HI AE C7 88 55 00 D4 00 01 09 00 3A 7F 3C 6C 9A 95 9D 76 8F 8B 8F 91 8D 
HI HI AE C7 88 55 00 D4 00 01        5 6F 11 80 91 8E 94 79 8F 8B 8F 91 8D 
HI HI AE C7 88 55 00 D4 00 00 00 90 34 60 86 74 8D 8B 91 82 8F 8B 8F 91 8D 
HI HI AE C7 88 55 00 D4 01 00          52 01 77 8B 8A 8F 75 8F 8B 8F 91 8C 
HI HI AE C7 88 55 00 D4 00 09 8A                   8A 8A 75 8F 8B 8F 91 8D 
HI HI AE 07 88 55 00 D4 00 00 09 00 46 3E 01  7 8A 89 95 86 8F 8B 90 92 8D 
HI HI AE 07 88 55 00 D4 0O 00 88 0 5         87 8A 89 95 75 8F 8B 90 92 8C
HI HI AE 07 88 55 00 D4 00 00 07    59 36 04 84 8A 89 95 86 8F 8B 90 92 8D 
HI HI AE 07 88 55 00 D4 00 09 00   61 37      2 8A 89 95 66 8F 8B 90 92 8C 
HI HI AE 07 88 55 00 D4 00 00 00          31 6D 8C 8A 95 72 8F 8C 90 92 8C 
HI HI AE 07 88 55 00 D4 09 00 09                      95 7B 8F 8C 90 92 8C 
HI HI AE 07 88 55 00 D4 00 00 50 06 8 46              9A 67 8F 8C 90 92 8C 
HI HI AE 07 88 55 00 D4 00 00 06 0 07 00 65 4B  8F 8D 9A 69 8F 8C 99 92 8C 
HI HI AE 07 88 55 00 D4 00    65 25 5F 4E 5O 5F 90 8D 9B 86 6F 8C 91 92 8C 
HI HI AE 07 88 55 00 D4 00    27 90 59 51 52 5E 90 8E 9B 7A 90 8D 91 92 8C 
HI HI AE 07 88 55 00 D4 00 51 08 00 51 50 51 61 91 8F AC 74 90 8D 91 92 8D 
HI HI AE C7 88 55 00 D4 00    95 00 4B 4F 54 5F 61 85 B0 85 90 7D 91 92 8D

AS25424C  10OCT2001
20:02-20:20(JST)
FREQ. 435.800-.786MHz

HI HI AE C7 88 55 00 D4 FB AE 09 58 8A 35 01 89                8E 8C 92 8E 
HI HI AE C7 88 55 00 D4 FB AE 09 58 94                    F 96 8E 8C 92 8E 
HI HI AE 07 88 55 00 D4 FB AE 09 58 94 48 07 88 8A 89 95 69 96 8E 8C 93 8E 
HI HI AE 07 88 55 00 D4 FB AE 09 58 94         6 A 89 95 69 96 8E 8C 93 8E 
HI HI AE 17 88 55 00 D4 FB AE 09 58 96 5E 03 85 8A 89 95 65 96 8E 8D 93 8E 
HI HI AE 07 88 55 00 D4 FB AE 09 58 96 68 0A 87 8A 89 95 69 96 8E 8D 93 8E 
HI HI AE 07 88 55 00 D4 FB AE 09 58 95 72 1F 70 8A 89 95 75 96 8E 8D 93 8E 
HI HI AE 07 88 55 00 D4 FB AE 09 58 93 7D 39 6A 8C 8A 97 78 96 8E 8D 93 8E 
HI HI AE 07 88 55 00 D4 FB AE 09 58 90 86 54 5D 8E 8B 98 6A 96 8E 8D 93 8E 
HI HI AE 07 88 55 00 D4 FB AE 09 58 8D 8E 55    8E 8C 99 AB 96 8F 8D 93 8E 
HI HI AE 07 88 55 00 D4 FB AE 09 58 89 94 55 5D 8F 8D 9A 72 96 8F 8E 93 8E 
HI HI AE 07 88 55 00 D4 FB AE 09 58 85 98 58 5B 8F 8E 9E    96 8F 8E 93 8E 
HI HI AE 07 88 55 00 D4 FB AE 09 58 81 9B 5D 59 90 6F 9C 6B 96 8F 8E 93 8E 
HI HI AE 07 88 55 00 D4 FB AE 09 58  D 9C                5D 96 8F 8E 93 8E 
HI HI AE C7 88 55 00 D4 FB AE 09 58 7A 9C 5F 5F 91 8F B0 54 96 90 8E 93 8E 
 
AS25411C   9OCT2001
20:58-21:07(JST)
FREQ. 435.793-.786MHz
                                                8A 89 95 7E 97 8F 8D 95 91 
HI HI AE 0I H  55 00 D4 C5 35 09 0C 42 44 7     8A 89 95 6C 97 8F 8E 95 91 
HI HI AE C7 88 55 00 D4 C5 35 09 0C             8A 89 95 70 97 8F 8E 95 91 
HI HI AE C7 88 55 00 D4 C5 35 09 0C 47 3D 09 83 8A  9 95 8C 97 8F 8E 95 91
HI HI AE 07 88 55 00 D4 C5 35 09 0C 4F 42 32 6C 8C 8A 97 84 97 8F 8E 95 91 
HI HI AE 07 88 55 00 D4 C5 35 09 0C 59 4B 68 53 8F 8C 9A 75 97 90 8E 95 91 
HI HI AE C7 88 55 00 D4 C5 35 09 0C             91 8E 9B 7C 97 90 8F 95 91 
HI HI AE C7 88 55 00 D4 C5 35 09 0C 72 60 72 59 91 8E 9E 7E 97 90 8R 95 91 
HI HI AE C7 88 55 00 D4 C5 35 09 0C 59 6C 72 5F 91 8F B0 AF 97 90 8F 95 91 
HI HI AE C7 88 55 00 S4 C5 35 09 0C 88 76 72 5F 92 8F B0 78 97 91 8F 96 91 
HI HI AE C7 88 55 00 D4 C5 35 09 0C 8F 7E 70 5F 92 8F B0 5E 98 91 8F 96 91  	
 
------------------------ FO-29の軌道要素 ------------------------------        
 
  ■ 軌道要素1:「jamsat−keps:1042」より         
          SB KEPS @ AMSAT  $ORB01284.N
          2Line Orbital Elements 01284.AMSAT

HR AMSAT ORBITAL ELEMENTS FOR AMATEUR SATELLITES IN NASA FORMAT
FROM WA5QGD FORT WORTH,TX October 11, 2001
SEND SUBSCRIBE/UNSUBSCRIBE TO majordomo@amsat.org ONLY
BID: ORB01284.N

 DECODE 2-LINE ELSETS WITH THE FOLLOWING KEY:
 1 AAAAAU 00  0  0 BBBBB.BBBBBBBB  .CCCCCCCC  00000-0  00000-0 0  DDDZ
 2 AAAAA EEE.EEEE FFF.FFFF GGGGGGG HHH.HHHH III.IIII JJ.JJJJJJJJKKKKKZ
 KEY: A-CATALOGNUM B-EPOCHTIME C-DECAY D-ELSETNUM E-INCLINATION F-RAAN
 G-ECCENTRICITY H-ARGPERIGEE I-MNANOM J-MNMOTION K-ORBITNUM Z-CHECKSUM

FO-29
1 24278U 96046B   01283.65404528  .00000062  00000-0  97071-4 0 04526
2 24278 098.5250 133.1151 0351745 062.6267 301.0206 13.52786269254252

 ■ 軌道要素2:「jamsat−keps:1041」より
        SB KEPS @ AMSAT  $ORB01284.O
Orbital Elements  01284.OSCAR

HR AMSAT ORBITAL ELEMENTS FOR OSCAR SATELLITES
FROM WA5QGD FORT WORTH,TX October 11, 2001
SEND SUBSCRIBE/UNSUBSCRIBE TO majordomo@amsat.org ONLY
BID: ORB01284.O
TO ALL RADIO AMATEURS BT

Satellite: FO-29
Catalog number: 24278
Epoch time:      01283.65404528
Element set:    0452
Inclination:      098.5250 deg
RA of node:       133.1151 deg
Eccentricity:    0.0351745
Arg of perigee:   062.6267 deg
Mean anomaly:     301.0206 deg
Mean motion:   13.52786269 rev/day
Decay rate:        6.2e-07 rev/day^2
Epoch rev:           25425
Checksum:              289

-------------------  FO-29(JAS-2)のテレメトリに関する情報  ---------------------- 
 
2)上記10月13日(土)のテレメトリの最終行を分析しておきます.

AS25464C1   13OCT2001
18:57-19:12(JST)
Freq. 435.803-.788MHz

HI HI AE C7 88 55 00 D4 9B 53 09 6D 6B 9F 69 5F 91 8F B0 5B 91 8E 90 90 8C 

テレメトリ   内 容         換算算値 単 位
3C	磁気センサーZ軸=	52451.0	[nT]
3D	磁気センサX軸	=	77941.2	[nT]
4A	太陽電池発生電流=	 1029.4	[mA]
4B	B充放電電流	=	 -138.0	[mA]
4C	B端子電圧	=	   15.6	[V]
4D	B中間端子電圧	=	    6.9	[V]
5A	バス電圧	=	   17.3	[V]
5B	JTA送信電力	=	  493.4	[mW]
5C 	構体温度1	=	   25.6	[℃]
5D	構体温度2	=	   26.7	[℃]
6A	構体温度3	=	   26.0	[℃]
6B	構体温度4	=	   26.0	[℃]
6C	Bセル温度	=	   27.5	[℃]

 ========================== FO-29(ふじ3号)のQSO情報等 ======================
   
 3)[jamsat-bb:

 ===============================================================================
   4)JARL のホームページに運用予定が記載されていましたのでご紹介します.
       ( http://www.jarl.or.jp/Japanese/3_Fuji/new/uy.htm )

       
      ふじ3号(JAS−2)の運用 

        *** 運用予定について ***


 10月1日(月) 〜 12月3日(月)アナログ系運用 

  *なお,運用予定は都合により,変更することがありますので,あらかじめご了承願います。

 照会先 : lab@jarl.or.jp

 最新の情報はテレホンサービス(03−3942−1000)をお聞きください。  
 以後の運用につきましては平成13年12月上旬にお知らせいたします。 
     
-----------------------    FO−20(JAS-1b)道要素   -------------------------
  5)
  ■ 軌道要素1 :出典はFO-29「ふじ3号」に同じ.
  
FO-20
1 20480U 90013C   01283.71246737  .00000032  00000-0  13810-3 0 03768
2 20480 099.0482 330.4825 0540863 047.6190 316.9403 12.83299098546918
 
  ■ 軌道要素2 :出典はFO−29「ふじ3号」に同じ.
               
Satellite: FO-20
Catalog number: 20480
Epoch time:      01283.71246737
Element set:    0376
Inclination:      099.0482 deg
RA of node:       330.4825 deg
Eccentricity:    0.0540863
Arg of perigee:   047.6190 deg
Mean anomaly:     316.9403 deg
Mean motion:   12.83299098 rev/day
Decay rate:        3.2e-07 rev/day^2
Epoch rev:           54691
Checksum:              311

 --------------------------------------------------------------------------------
 
         ■ ふじ2号/FO−20/JAS-1b ■      
            
          「ふじ2号」 現況                                                                                  
             
   JAS-1b(ふじ2号)のCWテレメトリ信号に,1997年10月12日12時(JST)の
 日本上空通過時,3桁の数字が繰り返されるはずが3個の長音の繰り返しとなっているという
 異常が発見されました。この不具合は次の通過時からは回復していましたが13日15時20分の
 通過時に再び観測されました。現在はA0の送信が続いています。衛星のアナログ系中継モード
 動作は異常が無く,正常時のテレメトリ内容からは衛星の動作に異常は認められません。従って,
 直ちに衛星のミッションに影響することは無いと予想されますので,当面はアナログ系中継
 モードを継続します。衛星は既に打ち上げてから7年8ヶ月を経ておりますので,今後は監視を
 強化する予定です。アマチュア各位のレポートをお待ちします。
 -------------------------------------------------------------------------------- 
  1997年10月14日 00時35分 確認のテレメトリ音 151 KB (A0) 
  1997年10月14日 11時10分 確認のテレメトリ音 216 KB (異常キーイング) 

  以上 JARLのホ−ムページの http://www.jarl.or.jp/Japanese/3_Fuji/new/fuji.htm

===================== FO-20 ふじ2号 のテレメトリ観測結果 ====================

  7月19日(木)19:45(JST)の観測結果では以前観測した単一周波数の
ドップラー効果で周波数がずれていくのみの状態でした。
                                         
   =============   JAS-2 (ふじ3号)と現在までの情報   ===========
  
  A.電話によるふじ3号の運用情報
      社団法人日本アマチュア連盟によるサービス
           TEL .   03− 3942 − 1000
  B.アマチュア無線FAXサービス
      JARLによるふじ3号の軌道情報(オービットカレンダー)
         FAX No.  03− 3233 −0055
  C.WWWブラウザで情報を簡単に見れる人のためにJAS−2
     ふじ3号の衛星としての運用されるまでの名前)の概要、打ち上げ
     までの状況、運用中における状況を説明したホームページを紹介し
     ておきます.
     社団法人日本アマチュア無線連盟(JARL)のホームページ

          http://www.jarl.or.jp/Japanese/3_Fuji/jasmenu.htm
 
     宇宙開発事業団(NASDA)ホームページ 
          http://www.nasda.go.jp/
         打上げ衛星 :地球観測プラットフォーム技術衛星(ADEOS) 
                       アマチュア衛星3号(JAS-2)
          http://spaceboy.nasda.go.jp/note/eisei/j/Eis15h_j.html#Eis15h_01_j
     http://spaceboy.nasda.go.jp/note/eisei/j/Eis15i_j.html        

  D.JAMSATによる軌道情報の活用
        JAMSATのホームページまたはjamsat−kepsの軌道要素より
      衛星の軌道情報を得る.
     JAMSATホームページ
               URL    http://www.jamsat.or.jp
       上記ホームページでは各地で行われるアマチュア通信衛星に関する
      ミューティングのお知らせや世界のアマチュア衛星に関する情報が
      満載されています.
 ========================================================================  
     JAMSATのメンバーのご協力によりJH6MME(高山 秀造)が
    執筆・編集を担当しております.ご指摘の意見、疑問やこのようにしたら
    というアイデアがありましたら小さなことでもかまいませんので気軽に下
    記アドレスまでご連絡ください.jamsat−newsからjas2
    infoへの転載をJH4PHW局坂井さんに担当して頂いております.  
                  E-mail : jh6mme@jamsat.or.jp : jh4phw@jamsat.or.jp
 ===============================   END  ===============================